Powrót do katalogu

HYDRA-3

AktywnyNaukaSSO
NORAD 69022·PAYLOAD·🇧🇬 Bulgaria

Wystrzelony May 3, 2026 z Vandenberg Space Force Base

Loading…

Następne Przeloty (najbliższe 24 godziny)

TLE

ŚwieżeSource: Space-Track

Epoka: Sep 14, 2026, 03:51 UTC

1 69022U 26100AU  26257.16059998  .00004090  00000-0  18937-3 0  9991
2 69022  97.3895 153.2337 0006243  54.5896 305.5922 15.20648458 20324

Śledź HYDRA-3 w czasie rzeczywistym z AllMySat

Download on the App Store